Tracking 22459 objects as of 3-Mar-2021
HD Live streaming from Space Station
objects crossing your sky now

COSMOS 252 DEB

Track COSMOS 252 DEB now!
10-day predictions


NORAD ID: 18431
Int'l Code: 1968-097EJ
Perigee: 532.9 km
Apogee: 1,874.2 km
Inclination: 62.3 °
Period: 109.3 minutes
Semi major axis: 7574 km
RCS: 0.017 m2 (small)
Launch date: November 1, 1968
Source: Commonwealth of Independent States (former USSR) (CIS)
Launch site: TYURATAM MISSILE AND SPACE COMPLEX (TTMTR)

Note: This is SATELLITE DEBRIS
aabbcc
Your satellite tracking list
Your tracking list is empty




NASA's NSSDC Master Catalog

Two Line Element Set (TLE):
1 18431U 68097EJ  21062.57381446 -.00000032  00000-0  29343-4 0  9997
2 18431  62.3482  17.1531 0885402 111.9203 257.8260 13.16950388193700
Source of the keplerian elements: AFSPC